RH
70 67 72 79 83 87 89 89 89 90 90 91 91 90 89 89 88 87 87 84 76 68 63 61 60 60 59 58 58 59 61 62 63 63 63 61 60 58 56 52 49 45 41 39 44 54 69 65 61 59 61 62 62 64 68 71 72 72 73 73 73 76 81 86 85 82 83 94 98 99 99 99 99 99 99 99 99 99 99 98 98 98 98 99 99 99 99 99 99 97 94 95 96 95 95 92 91 91 92 93 91 89 88
73 72 79 82 84 86 87 87 87 87 86 87 87 88 88 88 88 88 90 86 76 67 62 61 60 59 58 58 59 61 63 64 64 63 62 61 59 58 56 54 51 47 44 43 44 51 64 64 61 58 59 60 62 63 66 68 69 70 71 72 74 76 78 84 84 82 82 91 97 99 98 98 99 99 100 100 100 100 100 99 99 98 96 96 96 96 97 97 96 94 90 92 94 94 94 94 93 92 92 93 92 91 90
76 74 77 81 84 86 85 86 84 81 80 81 82 84 86 87 88 88 91 85 76 68 63 62 60 59 58 58 60 62 64 64 64 63 61 60 59 58 57 55 53 51 49 47 45 47 54 61 60 57 57 59 62 64 65 67 69 70 72 73 76 79 83 85 86 84 82 88 94 98 98 99 99 99 100 100 100 100 99 97 97 97 96 94 92 91 90 88 87 87 86 87 89 91 93 94 95 94 93 93 91 90 90
80 76 76 79 82 84 84 85 83 80 78 79 83 87 89 87 87 88 91 86 78 70 64 63 62 61 60 60 61 63 64 65 64 63 61 60 59 58 57 56 54 53 52 51 51 54 62 61 59 57 57 59 62 64 64 65 68 70 75 77 79 80 76 84 85 83 81 83 90 96 99 98 98 97 97 97 97 97 95 94 93 93 93 91 88 86 83 80 78 78 80 80 82 84 85 89 91 92 92 93 92 90 89
84 77 73 76 80 83 84 85 83 81 81 85 88 89 87 86 87 88 89 85 78 72 65 65 64 63 62 62 63 63 64 65 64 63 62 61 59 58 57 56 55 55 54 54 57 62 68 61 57 56 58 60 61 62 62 63 66 70 75 79 83 85 81 80 79 79 80 81 86 92 95 96 95 94 93 93 92 92 92 92 91 89 88 85 82 79 75 75 73 71 72 73 74 76 77 82 86 88 87 89 90 91 91
86 79 73 75 79 82 83 85 84 84 85 89 90 90 88 87 87 87 87 86 80 74 68 67 66 66 65 64 64 64 64 65 64 63 62 61 60 58 57 56 56 55 55 55 57 60 62 56 55 56 58 60 61 62 61 62 65 69 73 80 85 88 85 87 84 82 85 83 84 87 90 93 94 93 92 91 91 91 90 88 87 85 83 82 79 76 73 72 71 70 68 67 68 69 68 72 78 83 86 87 87 87 87
84 79 74 76 79 82 84 85 86 85 84 85 87 89 88 89 88 86 84 86 81 75 69 68 68 67 66 65 64 64 64 64 64 63 62 61 60 58 57 56 56 56 56 55 54 55 58 56 55 56 58 60 61 62 62 62 63 65 69 76 84 88 88 90 89 86 82 86 85 84 87 90 91 89 88 88 89 89 89 87 85 82 80 79 78 76 75 72 70 69 66 63 64 66 64 65 69 75 81 84 86 87 87
85 79 74 76 79 83 85 85 84 83 83 85 88 92 93 91 87 83 81 83 82 77 68 68 68 67 66 65 64 63 63 63 63 63 62 61 60 58 57 56 56 56 56 55 53 53 56 58 57 56 57 58 59 60 62 62 62 65 67 74 81 86 89 90 89 88 84 86 86 85 85 85 87 88 85 87 87 87 87 85 83 80 79 77 75 72 70 68 66 64 62 60 59 60 63 63 66 70 75 80 83 86 88
80 75 72 74 77 80 83 84 85 86 88 87 89 91 90 87 84 81 78 78 76 74 70 68 67 67 66 65 63 63 62 62 62 62 62 61 60 58 57 56 56 56 56 55 53 52 53 60 58 54 55 54 55 57 60 61 62 64 68 76 84 89 90 90 90 89 87 90 90 87 84 81 84 88 87 88 87 86 86 84 81 79 78 75 71 68 66 66 64 63 63 61 61 63 65 64 66 69 73 77 81 83 86
69 66 63 64 66 69 74 77 80 82 84 85 86 87 85 85 82 77 71 70 70 69 67 66 66 67 67 66 64 63 62 62 62 62 62 61 60 58 57 56 56 56 56 55 54 52 52 61 60 56 56 55 57 59 61 62 63 65 68 70 79 89 92 90 89 89 88 88 88 88 88 86 86 87 87 88 87 86 85 84 82 79 76 73 70 69 66 69 69 70 71 68 69 70 69 68 68 69 71 74 78 81 83
52 51 50 51 53 57 61 65 69 72 76 78 79 80 81 80 76 71 67 65 64 64 64 65 65 66 67 67 66 64 62 61 61 62 62 61 60 58 57 56 56 56 56 55 55 54 54 60 59 56 55 55 56 58 61 63 64 65 70 71 81 91 92 92 91 90 89 87 86 84 85 84 85 86 87 88 87 86 85 83 81 78 75 71 70 69 66 70 72 74 76 75 75 75 76 75 73 72 70 72 76 80 82
46 47 47 48 50 53 57 61 65 68 71 73 75 76 75 73 71 69 66 64 63 62 62 63 64 65 66 67 67 66 63 61 60 60 60 60 59 57 56 56 56 56 56 56 55 56 59 60 58 55 53 54 55 56 59 63 64 65 70 78 88 96 93 91 90 90 89 86 86 86 86 86 86 87 90 89 88 86 84 83 81 79 76 70 68 66 63 67 71 75 78 78 79 79 80 78 76 75 73 73 74 78 82
53 54 57 60 58 56 57 59 62 65 68 70 71 71 71 70 69 67 66 64 63 62 61 61 62 63 64 66 67 67 65 62 60 59 59 58 57 56 56 56 56 56 56 56 56 57 61 60 56 53 52 53 53 53 55 60 64 64 60 77 89 95 92 91 90 89 90 88 87 86 88 87 87 87 89 88 87 86 85 83 82 80 76 70 68 67 63 66 71 76 78 80 81 82 81 80 78 75 75 75 75 77 81
64 66 68 65 62 58 56 57 58 60 62 64 66 67 67 66 66 65 64 64 63 61 59 60 60 61 62 64 65 67 67 64 62 60 58 57 57 56 56 56 57 57 57 56 58 60 62 58 55 53 52 52 53 52 50 57 59 55 45 71 86 92 92 92 91 90 91 91 89 88 87 90 90 88 89 88 87 86 85 84 82 80 76 72 70 69 67 68 72 76 80 82 83 84 84 83 82 81 79 76 77 78 80
72 73 69 65 62 59 57 56 56 56 57 58 59 61 61 62 62 62 63 63 63 62 59 59 59 60 61 62 63 65 66 66 64 62 60 59 58 58 58 58 58 58 57 57 60 62 60 57 55 53 53 53 53 53 52 57 48 37 37 60 77 87 92 92 92 91 93 92 91 89 87 91 91 90 90 89 87 87 86 85 83 80 78 75 72 70 70 69 71 75 80 82 84 84 84 84 84 83 82 78 78 79 78
74 74 72 70 66 62 58 57 55 54 53 53 54 55 55 56 57 59 62 65 64 62 59 58 58 59 59 60 61 63 65 65 65 64 62 61 60 60 59 59 59 59 58 59 60 60 57 56 54 53 52 52 53 53 52 56 46 35 35 49 68 84 91 92 92 92 93 93 91 89 88 91 91 89 89 89 89 88 88 86 84 81 78 76 73 71 70 69 70 74 77 81 83 84 84 84 84 84 83 79 80 82 80
73 73 72 73 72 69 64 60 58 56 55 53 53 53 52 52 53 55 62 66 63 60 58 57 57 57 58 59 60 62 64 65 65 64 63 62 62 61 61 61 61 59 57 59 59 58 56 55 53 52 50 51 52 50 46 45 36 29 33 38 57 78 89 92 92 91 94 93 92 91 88 89 89 89 90 90 90 89 89 87 85 82 78 77 74 71 70 67 69 73 77 80 83 84 83 84 84 84 84 82 83 83 83
73 73 72 74 76 76 73 68 64 62 61 59 57 55 53 52 52 52 55 59 58 56 55 55 55 56 57 57 59 62 67 67 66 64 63 62 62 62 62 61 60 58 56 58 58 56 55 53 52 50 49 50 49 45 38 33 28 27 32 32 45 64 85 89 90 90 94 91 91 91 89 88 88 89 91 91 91 90 89 87 85 82 79 77 75 72 70 67 67 70 79 80 82 84 84 85 84 84 85 85 85 84 83
74 73 72 73 75 77 78 74 70 68 67 65 62 59 56 54 52 51 50 51 52 52 51 52 53 54 55 56 61 67 72 70 68 66 65 63 62 61 61 59 56 54 53 54 54 54 53 52 51 50 48 48 45 40 35 30 26 25 28 30 35 47 75 84 87 89 92 91 91 90 89 89 88 88 88 90 90 90 89 87 84 82 80 78 76 73 71 67 66 68 78 79 82 84 84 85 85 85 85 85 85 85 84
77 78 73 71 70 70 71 69 67 66 66 66 63 60 56 54 52 50 49 47 47 47 48 48 50 51 54 59 67 73 74 72 70 68 67 65 63 61 59 57 54 53 52 52 52 52 52 51 50 49 47 47 45 42 39 33 28 25 25 28 29 35 56 75 85 89 90 92 92 90 88 89 89 89 88 89 90 90 88 86 84 82 81 79 77 75 72 68 65 67 74 79 81 82 82 84 84 85 85 86 86 85 85
87 89 84 75 69 65 64 63 62 63 63 60 62 65 68 61 54 50 49 50 49 46 45 47 55 62 58 61 68 74 72 73 72 70 68 68 65 62 60 58 56 54 52 51 50 50 50 50 48 46 46 44 44 44 40 37 33 29 25 27 26 28 35 62 78 85 89 92 93 92 89 89 89 90 89 90 90 90 88 87 85 83 81 80 78 76 73 69 66 66 71 77 80 82 82 84 85 85 86 86 86 85 85
91 91 87 84 78 72 70 71 72 71 68 58 63 73 79 76 70 63 58 66 64 59 55 59 64 65 58 59 63 67 67 71 72 72 70 69 68 66 62 60 57 54 50 50 49 50 50 48 45 43 43 41 39 38 38 38 37 34 30 27 26 25 25 45 64 78 85 90 92 92 90 89 89 89 89 89 90 90 89 88 86 84 82 80 79 77 75 70 67 66 67 73 78 81 81 84 85 85 86 86 86 86 86
87 87 85 84 81 79 80 78 78 77 73 58 65 77 78 80 79 76 71 78 78 75 71 74 69 62 54 57 58 59 59 62 66 69 70 69 68 67 65 61 58 54 50 49 49 50 50 48 45 41 39 38 36 35 35 37 38 38 37 32 28 26 23 31 47 65 78 84 88 90 89 89 89 89 90 89 90 91 90 88 86 84 82 81 80 78 76 72 69 66 66 70 75 79 78 82 84 85 86 86 86 86 86
86 85 82 84 83 83 87 83 79 78 78 65 71 80 78 79 79 79 78 79 80 80 79 78 72 64 56 59 58 57 55 56 58 62 68 69 69 68 66 63 60 56 52 50 49 49 49 47 44 40 38 38 37 35 35 36 37 39 40 38 35 30 25 25 32 46 65 77 84 88 91 89 89 89 91 91 91 91 90 89 87 85 83 82 81 79 77 74 71 68 66 68 72 76 79 80 83 85 86 86 86 86 86
84 85 82 82 83 84 85 85 82 80 82 77 75 77 80 77 77 78 78 79 79 79 80 79 72 66 63 65 63 60 57 57 57 58 62 66 68 68 67 64 61 58 54 52 51 50 49 46 43 39 37 38 37 36 35 35 36 37 39 41 40 37 32 27 25 30 43 61 74 83 90 89 89 89 90 92 93 92 91 89 87 85 83 83 81 80 78 76 73 70 68 69 71 75 78 80 81 83 86 86 86 86 86
84 84 83 81 81 82 84 85 84 82 81 81 79 78 80 76 75 75 75 78 78 78 79 75 70 67 68 69 69 67 62 63 61 58 58 61 64 66 67 64 61 58 55 53 51 50 49 46 43 39 37 37 37 36 36 35 35 36 37 40 42 42 40 34 29 26 27 39 54 70 84 87 89 90 91 92 92 93 92 89 87 85 84 83 82 81 79 77 75 72 70 70 71 74 76 78 81 83 85 86 86 86 85
86 85 84 80 79 81 83 82 80 79 80 81 80 80 81 81 78 75 74 74 75 76 76 76 76 76 74 73 72 72 69 68 66 63 59 59 61 63 65 64 61 58 55 53 51 49 48 45 43 42 39 38 38 37 36 36 36 36 37 38 40 42 44 42 37 31 26 27 34 48 67 80 87 91 94 93 93 92 91 89 87 86 85 84 83 82 80 78 76 74 72 72 73 74 76 77 79 82 84 85 85 85 84
87 87 86 79 78 81 80 77 77 78 76 74 71 70 76 78 78 77 76 74 73 73 75 77 77 76 77 76 76 75 74 71 69 66 62 59 60 61 62 62 60 58 55 52 50 48 46 43 42 41 40 40 39 38 37 36 36 36 37 37 38 40 43 45 44 41 35 28 26 30 41 59 74 86 90 90 91 92 90 88 87 86 86 85 84 83 81 79 77 75 74 74 75 76 77 77 78 80 83 84 85 84 83
88 89 87 81 79 79 78 79 79 79 80 70 62 62 70 75 74 73 77 76 71 66 65 70 73 75 75 75 76 76 75 72 70 66 62 59 58 59 59 60 59 57 54 52 49 47 45 43 42 41 41 42 41 40 37 37 36 37 37 37 38 39 40 43 45 46 44 38 32 27 25 35 52 71 85 88 89 90 90 88 87 87 87 87 86 85 82 80 78 77 77 77 78 78 78 78 78 79 80 82 83 83 83
87 89 83 79 79 80 79 78 78 79 82 74 74 76 77 77 74 72 76 75 74 70 62 70 72 73 76 76 75 74 74 64 64 67 65 62 58 56 55 57 57 55 53 51 49 47 44 44 43 43 43 42 42 42 41 38 37 37 37 37 38 39 40 41 44 46 47 46 41 35 28 26 35 52 73 81 86 88 91 92 92 91 90 90 88 86 83 81 79 78 78 78 78 79 79 79 79 79 80 80 80 81 81
85 86 80 75 75 76 78 78 78 78 78 76 76 78 78 78 76 74 73 73 73 73 73 73 74 75 77 77 76 74 70 60 60 65 68 64 60 55 53 55 55 54 52 50 48 46 45 46 46 45 44 42 42 41 41 40 39 38 38 38 38 39 40 41 42 44 46 47 47 44 38 30 29 38 57 73 84 91 92 91 90 89 89 90 90 88 85 81 79 78 79 79 79 78 80 81 81 81 80 80 79 78 76
81 82 79 75 72 71 74 75 76 77 76 75 77 78 78 77 76 75 72 71 72 74 75 76 77 77 78 79 77 72 63 58 55 58 69 67 63 58 52 50 51 53 52 50 49 48 49 49 47 45 43 41 40 39 39 40 40 40 40 40 40 40 40 41 42 43 45 46 47 47 45 39 32 30 39 61 76 87 92 92 89 87 85 87 89 89 87 83 80 79 79 78 79 80 81 83 83 83 82 81 79 77 73
80 79 77 76 76 76 75 74 74 75 76 75 76 77 77 76 75 75 74 72 71 71 71 72 73 73 72 73 73 70 65 64 62 62 65 67 66 61 53 48 48 50 50 49 50 51 52 49 46 44 41 40 38 38 38 40 42 43 41 42 42 42 41 42 43 44 44 45 45 46 47 45 40 34 31 52 68 79 86 87 87 86 86 85 86 87 88 86 83 80 79 79 80 81 82 83 84 85 84 82 80 78 75
79 77 76 76 77 77 77 76 76 77 77 76 76 77 78 77 75 74 74 72 69 66 63 64 65 66 66 68 68 69 68 68 68 66 65 68 68 64 56 50 48 48 48 49 50 51 51 49 47 45 44 42 41 39 39 40 42 43 43 45 45 44 43 43 43 44 44 45 45 45 46 46 45 41 33 37 49 64 76 83 85 84 83 81 82 84 87 86 85 82 80 80 79 80 82 84 86 87 86 85 83 81 79
78 76 76 76 76 77 78 78 78 78 77 76 76 77 78 78 76 74 72 72 70 68 66 66 66 67 68 69 70 70 70 70 69 69 69 70 70 69 65 61 59 57 55 54 53 53 53 52 51 50 49 48 46 45 44 44 45 45 46 46 46 45 45 44 43 43 43 44 45 45 45 45 45 44 43 36 36 44 57 70 78 82 80 78 78 81 84 86 85 84 82 81 81 81 81 84 87 88 89 88 86 84 81
78 77 76 76 77 77 77 78 78 78 78 77 77 77 78 78 77 75 73 72 72 71 70 69 68 68 69 70 71 72 72 72 71 71 70 71 72 72 71 70 70 68 67 64 63 62 62 61 59 58 57 55 54 53 51 50 50 49 47 46 46 46 46 44 43 42 42 43 44 44 45 44 44 44 43 41 38 36 38 52 66 76 77 77 77 78 81 84 85 84 83 82 82 81 82 84 87 90 92 91 89 87 85
79 78 77 77 77 78 78 78 78 78 79 79 78 78 78 78 78 77 75 74 75 75 76 72 70 69 69 70 71 72 75 74 73 73 72 73 73 73 72 73 73 73 73 72 71 71 71 70 68 67 66 65 64 62 60 58 56 53 49 48 47 46 45 44 42 41 41 42 43 43 44 44 44 43 42 41 40 38 35 37 50 66 78 82 81 79 79 81 83 83 83 82 82 81 80 80 83 86 90 92 92 91 88
79 79 78 78 78 78 79 79 80 80 81 81 80 80 79 80 79 78 78 77 78 78 78 76 74 72 71 72 72 73 75 75 74 73 72 72 73 73 73 73 73 74 75 74 74 74 74 74 73 72 72 72 71 69 66 65 62 59 55 52 50 48 46 44 42 40 40 41 41 42 43 43 43 43 42 41 40 39 38 37 42 53 70 77 80 81 81 80 80 81 81 81 79 78 76 76 78 81 85 91 93 93 92
79 79 80 79 79 79 79 80 81 81 82 82 82 82 81 81 81 80 79 80 79 78 77 78 78 77 75 75 75 75 74 74 74 73 72 71 71 71 72 72 72 73 75 75 76 76 76 76 75 75 74 74 73 72 70 69 67 65 61 58 55 52 50 46 43 41 39 39 40 41 42 42 42 42 42 41 40 39 38 36 35 37 43 56 67 76 84 81 80 79 78 78 78 76 75 76 76 78 82 88 92 94 95
79 79 81 80 80 80 80 80 81 82 82 82 83 83 82 83 82 82 81 80 79 78 77 78 79 79 78 77 77 76 75 75 75 75 74 73 72 71 71 72 71 71 72 73 74 75 76 76 75 75 75 74 73 73 72 71 70 68 66 63 60 57 53 49 46 43 40 39 39 40 41 41 41 41 41 41 40 39 39 37 36 34 32 35 43 54 68 76 80 81 80 78 78 77 77 76 76 77 79 84 89 94 97
79 80 81 81 80 80 79 79 80 81 81 81 82 82 83 83 83 83 82 81 80 79 77 78 78 78 76 76 75 75 75 75 76 75 75 74 74 73 73 73 73 72 72 72 72 72 73 73 73 73 72 73 73 73 73 72 72 71 69 67 65 61 57 54 50 46 42 42 41 41 41 41 40 40 40 40 39 39 38 38 37 36 35 33 32 34 43 64 75 80 81 79 78 78 77 76 76 77 77 80 86 92 96
81 81 81 81 80 79 79 79 80 80 80 81 81 81 82 82 82 82 81 80 80 79 79 78 78 78 77 75 74 73 73 73 74 75 76 76 75 75 74 74 75 76 76 76 75 74 73 73 72 72 72 73 73 73 73 73 72 72 71 69 67 65 63 60 56 51 46 45 45 44 42 41 41 40 40 39 38 37 37 37 37 36 35 34 33 32 34 52 65 74 80 80 80 79 77 77 76 76 75 77 82 88 93
82 81 81 81 80 80 79 80 80 80 81 81 81 81 81 81 81 80 80 79 79 78 78 78 79 79 78 76 75 74 73 72 73 74 75 76 76 75 75 75 76 76 77 78 78 78 77 75 74 73 72 72 72 72 72 72 72 71 70 69 68 67 66 64 61 56 52 49 47 45 43 41 41 41 41 39 38 37 36 35 35 35 35 34 33 32 31 38 48 59 72 78 81 80 78 78 77 77 76 76 78 83 89
82 82 81 81 80 80 80 80 81 81 81 82 81 81 81 80 80 79 79 79 79 78 77 78 78 79 78 77 75 74 73 73 73 73 75 75 75 75 74 74 75 75 75 77 78 79 79 78 77 75 73 72 72 72 72 70 69 69 68 68 68 67 67 65 63 60 56 53 49 46 45 43 43 43 43 42 40 38 36 34 34 33 33 33 32 32 31 31 34 42 55 69 77 80 79 78 77 77 77 76 76 79 84
82 82 82 82 81 81 81 81 82 82 82 82 82 81 80 80 79 79 79 79 79 78 77 77 78 78 79 78 78 77 76 75 74 74 75 74 74 73 73 73 74 74 75 76 77 78 79 79 78 77 76 74 73 73 72 70 68 67 68 67 67 67 66 65 63 61 58 56 53 51 50 49 47 46 45 44 43 40 37 35 34 33 32 31 31 31 31 30 31 33 38 52 66 77 78 77 77 76 75 75 75 77 79
82 82 82 82 81 81 81 82 82 82 83 83 83 82 80 79 79 79 78 79 79 79 79 78 79 79 79 80 80 80 79 77 76 76 75 74 73 72 72 72 73 74 74 75 76 76 77 78 78 78 77 75 74 73 71 70 69 68 67 66 65 65 64 64 62 61 59 58 56 55 54 53 51 49 47 46 44 43 41 38 36 34 32 31 31 30 30 30 31 31 31 37 50 65 75 78 78 76 74 73 74 75 76
82 82 82 81 81 81 81 82 82 83 83 83 83 81 79 78 78 78 77 77 78 79 80 79 78 78 80 80 79 79 79 77 76 75 74 73 73 72 73 72 72 73 74 74 75 75 75 76 77 77 76 75 73 71 70 69 68 67 66 65 64 63 62 62 61 59 58 56 55 54 53 52 50 49 47 46 44 43 42 40 38 36 35 34 32 31 30 30 31 31 32 33 38 48 64 74 77 77 74 72 73 74 75
83 82 82 81 81 81 81 81 82 83 84 84 82 80 78 77 76 76 76 76 77 78 80 80 79 78 78 78 78 78 78 76 75 75 73 72 71 70 71 71 71 72 73 74 74 73 73 73 74 74 74 72 71 70 69 67 66 65 64 63 63 62 61 60 59 57 56 55 53 52 51 49 48 47 46 45 45 44 43 42 42 42 42 41 40 37 34 32 31 31 32 33 35 39 48 63 73 78 75 73 72 72 73
83 83 83 82 81 80 80 81 82 83 83 83 82 79 77 76 75 75 75 76 77 78 78 80 80 79 76 75 75 75 75 75 75 75 74 72 69 67 66 68 69 71 72 73 72 72 70 71 71 71 70 68 68 68 67 65 64 64 63 63 62 62 61 60 59 58 56 55 53 52 51 50 49 49 49 50 51 51 52 52 53 54 56 56 55 52 48 43 38 34 32 33 35 37 41 53 66 76 78 76 74 72 71
83 83 83 82 81 80 79 80 81 82 83 82 81 80 78 77 76 76 76 76 76 77 78 80 81 79 76 73 71 71 72 74 75 75 73 71 68 64 59 60 62 65 67 70 70 70 69 69 69 67 64 64 65 66 65 64 63 63 63 63 62 62 60 60 59 59 58 57 56 55 55 54 55 56 57 59 61 62 63 64 65 66 67 66 66 65 64 59 52 44 37 35 34 36 38 44 53 63 73 78 77 74 71
83 83 82 81 80 79 79 79 79 81 82 82 82 80 78 77 77 77 76 76 76 76 77 78 79 79 77 74 71 70 71 73 74 74 71 68 66 64 63 63 63 62 60 62 65 68 69 68 67 66 63 64 65 64 64 64 64 64 63 63 63 62 59 60 60 60 60 59 60 60 60 61 62 63 64 66 67 68 68 68 68 68 69 69 69 70 72 70 64 57 48 41 37 35 36 39 43 50 59 70 76 77 73
82 82 81 80 79 79 79 79 79 80 81 82 81 80 78 78 77 78 78 77 76 76 76 76 76 77 78 76 74 73 72 73 74 73 69 65 66 69 73 73 68 61 53 53 56 62 69 68 67 66 64 64 64 64 64 64 64 64 64 64 63 62 61 61 61 62 62 62 63 63 63 64 65 67 68 69 70 70 70 70 69 70 71 70 72 74 75 76 74 69 61 52 44 38 36 37 40 43 45 55 65 73 76
81 81 80 79 79 78 79 80 80 80 80 81 80 79 78 77 77 77 78 78 78 78 78 77 75 74 75 76 75 75 75 75 75 74 72 68 68 70 74 69 64 60 56 56 54 53 59 59 61 62 63 64 64 64 64 65 65 65 65 65 64 63 63 63 63 64 66 66 66 65 65 66 67 68 70 71 72 72 73 73 73 74 74 74 74 75 76 77 77 76 72 64 54 45 39 37 37 39 42 45 53 63 73
80 80 80 79 79 79 79 80 80 80 79 80 80 79 78 77 76 76 77 78 79 79 79 78 76 75 73 74 74 74 75 76 76 75 74 73 71 68 67 62 59 59 62 62 59 55 49 49 52 56 60 63 64 65 65 65 66 66 67 66 66 66 65 65 67 68 69 64 64 66 67 68 69 70 72 73 74 75 75 76 76 76 76 77 77 77 77 78 79 79 78 73 66 56 46 40 37 36 38 41 45 52 65
81 80 80 80 79 79 79 79 79 79 79 80 81 80 79 77 76 76 77 78 79 80 80 79 78 78 76 74 73 72 73 76 78 78 76 76 75 71 66 61 61 64 67 67 63 58 52 51 52 55 57 62 62 62 64 66 68 68 68 67 66 66 66 68 69 67 64 66 69 70 70 70 71 73 74 75 76 77 77 77 77 77 77 78 78 78 79 79 79 79 79 77 74 68 59 49 42 37 36 37 39 43 53
81 81 80 80 80 80 79 79 79 79 80 81 82 82 81 79 78 78 78 79 81 82 83 82 81 81 80 79 78 78 79 81 82 82 80 77 77 77 75 70 69 69 72 69 64 59 53 57 58 58 58 61 61 59 58 62 66 69 70 68 66 65 67 69 70 68 66 68 69 70 71 73 74 75 76 77 78 78 79 78 79 79 79 79 80 80 80 79 79 79 79 79 78 76 72 62 53 45 39 37 37 40 45
82 82 81 80 80 80 80 80 80 80 81 83 84 84 84 83 83 82 81 82 83 85 85 85 85 85 85 85 85 85 85 83 81 81 82 79 78 78 79 77 74 72 74 70 69 69 67 70 70 68 67 65 63 61 60 61 64 67 69 68 69 70 70 70 71 72 71 69 65 64 68 73 76 77 78 79 80 81 81 81 81 81 81 82 82 82 82 82 82 81 80 81 81 81 80 76 68 58 49 50 52 56 62
84 83 82 81 81 81 82 82 82 83 84 85 86 87 87 88 87 86 84 85 86 87 88 89 89 90 90 89 89 89 87 82 78 78 82 83 83 83 83 82 82 82 83 79 80 82 86 86 82 78 76 71 68 66 65 64 64 65 66 69 71 73 73 71 69 67 66 66 65 64 64 69 75 79 81 82 83 83 84 84 84 84 84 84 85 85 84 85 86 85 84 84 84 84 84 83 78 70 60 62 68 75 78
84 84 84 83 83 83 83 84 85 85 86 88 89 89 90 90 90 88 87 87 88 89 91 92 92 93 93 93 94 93 90 85 80 78 81 86 88 89 89 87 86 86 86 87 87 86 89 90 86 81 79 75 70 68 69 67 66 65 65 69 72 75 75 71 68 66 65 65 67 68 67 66 71 79 82 83 84 85 86 87 87 87 87 87 87 87 86 86 87 87 87 86 86 85 85 85 83 78 70 64 65 69 76
85 85 85 84 84 84 85 86 87 88 89 91 92 92 92 91 91 90 90 89 90 91 93 94 95 95 96 96 97 96 93 89 85 83 86 89 90 90 91 90 89 87 85 87 87 87 87 88 85 82 84 80 75 70 66 67 68 68 68 69 71 73 74 69 69 70 69 71 73 75 74 72 75 80 83 83 85 86 87 88 89 89 89 88 87 87 87 86 86 85 85 85 84 84 84 84 84 83 80 72 69 71 76
85 85 86 85 85 85 86 87 88 90 92 94 95 95 94 93 92 92 92 92 92 93 95 96 97 97 98 99 99 98 96 94 92 90 92 93 90 87 89 90 89 86 82 84 85 87 88 90 89 87 86 84 81 78 72 67 66 66 67 70 71 72 71 69 70 73 75 79 81 81 81 82 83 84 84 84 85 87 88 90 90 90 89 88 87 86 86 85 85 84 84 83 81 81 81 82 82 83 83 80 76 73 74
Wind_Speed
12 14 15 16 16 15 15 14 14 13 12 12 12 12 11 11 11 11 11 11 12 13 13 13 13 13 13 14 14 14 15 15 15 15 15 15 16 16 16 17 17 17 17 18 18 17 15 12 11 12 12 12 12 12 13 13 12 12 12 13 13 14 14 14 14 13 13 14 16 18 18 18 18 17 16 17 17 17 17 16 16 16 16 16 16 16 16 16 16 16 15 14 14 13 13 12 12 11 11 11 11 11 11
13 14 15 15 15 14 14 14 13 12 12 11 11 11 11 11 11 11 12 12 12 12 13 13 13 13 13 13 14 14 14 14 15 15 15 15 15 16 16 16 17 17 17 17 18 17 15 12 11 12 12 11 11 12 12 12 12 12 13 13 13 14 13 13 13 12 12 13 15 17 18 19 20 21 20 19 18 18 17 16 15 14 14 14 14 15 15 15 15 14 13 13 13 12 12 11 11 10 10 10 10 10 11
12 13 14 15 14 14 14 13 13 12 12 11 11 11 11 11 11 11 11 11 12 12 12 12 12 12 12 13 13 13 14 14 14 14 14 14 15 15 15 16 16 16 16 16 17 17 16 13 11 11 11 11 11 11 11 11 11 11 12 13 13 13 13 13 12 12 12 12 13 15 17 18 19 19 19 18 18 17 17 14 13 13 13 13 13 13 13 13 13 13 12 11 11 11 11 11 10 10 9 9 9 9 10
12 12 13 14 14 14 14 13 13 12 11 11 11 11 11 11 11 11 11 11 11 11 11 12 12 12 12 12 12 12 12 13 13 13 13 13 14 14 14 15 15 15 15 15 16 15 13 13 11 11 11 11 11 11 11 10 10 11 12 12 13 13 13 12 12 12 12 11 11 13 15 15 15 15 16 15 16 15 14 13 12 12 12 12 12 12 12 12 12 12 11 11 10 10 9 9 9 9 8 8 8 8 9
11 12 12 13 13 13 13 13 13 12 11 11 11 11 10 10 11 11 11 11 10 11 11 11 11 11 11 11 11 11 11 12 12 12 12 12 12 13 13 13 14 14 15 15 15 13 10 11 10 10 10 10 10 10 10 10 10 11 11 12 12 13 13 12 12 12 11 10 10 11 12 12 12 12 13 13 13 13 12 12 12 12 11 11 11 11 11 12 12 11 11 11 10 9 9 8 8 8 7 7 7 7 8
11 11 12 12 13 13 13 12 12 12 11 10 10 10 10 10 10 10 10 10 10 10 10 11 11 11 10 10 10 10 10 10 10 11 11 11 11 11 12 12 13 13 14 15 15 14 11 9 9 9 9 10 10 10 10 9 10 10 11 11 12 12 12 12 12 12 11 10 9 9 10 10 11 11 11 11 11 11 11 10 10 10 10 10 10 10 11 11 11 11 11 11 11 10 9 8 8 7 7 6 6 6 7
10 10 11 12 12 12 12 12 12 11 10 10 9 10 10 10 10 10 10 10 9 9 10 10 10 10 10 10 9 9 9 9 9 9 9 9 10 10 10 11 11 12 13 14 15 14 11 9 9 9 9 9 9 9 9 9 9 10 11 11 11 11 11 11 11 11 11 10 9 8 8 9 9 9 9 9 9 10 10 10 9 9 9 10 10 10 11 11 11 11 11 11 11 10 9 9 8 7 7 6 6 7 7
9 9 10 11 12 12 11 11 11 11 10 9 9 9 10 10 10 10 9 9 9 9 9 9 9 9 9 9 8 8 8 8 8 8 8 8 8 9 9 10 10 11 12 13 14 14 12 9 9 9 9 9 9 9 8 8 9 10 10 10 10 10 10 10 10 10 10 9 8 8 8 8 8 8 7 7 8 8 9 9 9 9 10 10 11 11 11 12 12 11 11 11 10 10 9 8 7 7 7 6 7 7 7
8 8 10 11 11 11 11 11 10 10 10 9 9 9 9 9 9 9 9 8 8 7 7 8 8 8 8 8 8 7 7 7 7 7 7 7 7 8 8 9 9 10 11 12 13 13 13 10 8 9 9 9 9 8 8 8 8 9 9 9 9 9 9 9 10 10 10 9 8 7 7 7 7 8 7 7 7 7 8 9 9 10 10 11 11 12 12 12 12 12 11 11 10 10 9 8 8 7 7 7 7 7 7
7 7 8 9 9 10 10 10 10 9 9 9 9 8 8 8 8 8 7 7 6 6 6 6 7 7 7 7 7 7 6 6 6 6 6 6 6 7 7 8 8 9 10 11 11 12 13 9 8 8 8 8 8 8 8 7 7 8 8 8 9 9 9 8 9 9 9 8 7 7 7 7 7 7 7 7 7 7 8 8 9 10 10 11 12 12 13 12 12 11 11 10 10 10 9 9 8 8 7 7 7 7 7
6 6 6 7 8 8 8 8 8 8 8 8 8 8 8 7 7 7 6 5 5 4 5 5 6 6 6 6 6 6 6 6 6 6 6 6 6 6 7 7 7 8 9 9 10 12 12 9 8 7 8 8 8 8 7 7 7 7 7 7 8 9 8 8 8 9 9 8 7 7 6 6 6 6 6 7 7 7 8 8 9 10 10 11 12 13 13 12 11 11 11 10 10 10 10 9 9 9 8 7 7 7 7
6 5 5 5 6 7 7 7 7 7 7 7 7 7 6 6 6 6 6 5 4 4 4 4 5 5 5 5 5 6 6 6 6 6 5 5 5 6 6 6 6 7 7 8 9 11 11 8 7 7 7 8 8 8 7 6 6 6 6 6 7 8 7 7 7 8 8 8 7 6 6 6 5 5 5 6 6 7 7 8 8 9 10 11 12 13 13 12 11 11 10 10 10 10 10 10 10 10 9 8 8 7 7
6 5 5 5 5 6 6 6 6 6 6 6 6 5 5 5 5 5 5 4 3 3 3 4 4 4 4 4 4 4 5 5 5 5 5 5 5 5 5 5 5 6 6 7 9 10 8 6 6 7 7 7 8 8 7 6 6 5 5 6 7 8 8 6 6 7 7 7 6 6 5 5 5 5 5 5 6 6 7 7 8 8 9 11 12 13 14 13 11 10 10 10 10 10 10 10 10 10 10 9 8 8 7
5 5 5 5 5 5 6 6 6 5 5 5 5 5 5 4 4 4 4 4 3 2 2 3 3 3 3 3 3 3 3 3 3 3 4 4 4 4 4 4 4 4 5 7 8 7 6 5 5 6 6 7 7 8 8 7 6 5 4 5 6 7 7 6 5 6 6 6 6 5 5 5 4 4 4 4 5 6 6 6 7 8 9 10 12 13 13 12 11 10 10 9 9 9 9 10 10 10 10 10 9 8 7
5 4 4 4 5 5 5 5 5 5 5 5 5 5 4 4 4 4 4 4 3 2 2 2 2 2 2 2 2 2 2 2 2 2 2 2 2 2 2 3 3 3 4 6 5 4 4 4 5 5 6 6 6 7 8 7 6 5 4 4 5 6 7 5 5 5 6 5 5 5 5 5 4 3 3 4 5 5 6 6 7 8 9 10 12 13 13 12 11 10 9 9 9 9 9 9 9 10 10 10 9 8 8
4 4 4 4 5 5 5 5 5 5 5 5 5 4 5 4 4 4 4 4 3 3 2 2 1 1 1 1 1 1 1 1 1 1 2 2 1 1 1 1 2 2 4 4 3 2 3 4 4 5 5 5 6 7 7 7 6 6 5 4 4 5 6 5 4 4 5 5 5 5 5 4 3 3 3 3 4 4 5 5 6 8 9 10 12 12 12 12 11 10 9 8 8 8 8 9 9 9 9 9 9 8 8
4 4 4 5 5 5 6 6 6 5 5 5 5 5 5 5 5 4 4 4 4 4 3 2 2 1 1 1 1 1 1 1 1 1 2 2 1 1 1 0 1 2 3 2 1 2 2 3 4 4 4 5 5 6 7 7 7 6 5 3 3 3 5 5 4 4 4 4 4 4 4 4 3 2 2 3 3 3 4 5 6 8 9 10 11 12 13 12 11 9 8 8 7 7 8 8 8 8 8 8 8 8 8
4 4 4 5 5 6 6 6 6 6 5 5 4 4 4 4 4 4 4 4 4 4 4 3 3 2 2 1 1 1 1 1 2 2 2 2 2 2 1 1 1 1 1 1 1 1 2 2 3 4 4 4 5 6 8 8 7 7 5 3 2 2 3 4 4 4 4 5 4 4 4 4 3 3 3 3 3 3 3 4 5 7 9 10 11 12 12 12 11 10 8 7 7 7 7 7 8 8 8 8 8 8 7
4 3 3 4 4 5 5 6 7 6 5 4 4 4 3 4 4 4 5 5 5 5 4 4 4 3 2 1 1 1 2 2 2 2 2 3 3 2 2 1 0 0 0 0 1 1 1 2 2 3 4 4 5 6 8 8 8 7 6 4 2 1 2 2 3 3 4 5 5 5 4 4 4 4 4 3 3 3 3 4 5 6 8 9 10 11 12 12 11 10 8 7 7 6 6 7 7 7 7 7 7 7 7
3 2 1 2 3 3 4 5 6 6 5 4 3 2 2 3 4 4 5 5 5 5 5 4 4 4 3 1 0 1 2 2 2 3 3 3 2 2 2 2 1 1 1 1 1 1 1 1 2 3 3 3 4 6 7 8 8 8 6 5 2 1 1 1 2 2 3 4 5 6 5 4 4 4 4 3 3 3 4 4 5 7 7 8 9 10 11 12 11 10 9 7 7 6 6 6 6 7 7 7 7 7 7
2 2 1 2 2 3 2 2 3 3 3 3 2 0 2 3 4 4 4 5 5 6 5 4 3 2 2 1 1 1 1 1 2 3 4 3 2 2 3 3 2 2 2 2 1 1 1 2 2 3 3 3 3 4 5 7 8 8 7 5 3 1 1 2 1 1 2 3 4 5 5 4 4 4 4 3 3 4 4 5 6 7 7 7 8 9 10 11 11 11 9 7 7 6 6 6 6 6 6 7 7 7 7
3 3 2 1 1 1 2 1 1 1 2 3 3 2 1 1 2 3 2 2 3 4 4 3 3 3 4 3 2 2 3 2 2 2 3 4 3 3 3 3 3 3 2 2 3 3 3 3 3 3 3 3 3 3 4 6 8 8 8 7 5 2 0 2 2 1 0 2 3 4 5 4 4 4 4 4 4 4 5 5 6 7 7 7 8 8 9 11 11 11 9 8 7 6 6 6 6 6 6 6 6 6 6
4 3 3 3 2 2 3 3 2 2 3 3 3 2 2 1 1 1 1 1 1 2 2 2 3 5 5 4 4 4 5 4 3 3 3 4 5 5 4 4 3 3 2 3 3 4 4 4 4 4 3 3 3 3 4 6 7 8 8 8 6 4 2 1 3 3 2 1 1 3 4 4 4 4 4 4 4 5 5 6 6 6 7 7 7 8 9 10 10 10 10 9 7 7 6 6 6 6 6 6 6 6 6
4 4 3 3 3 3 3 3 3 3 3 3 2 1 2 2 2 1 1 1 1 1 1 1 3 5 5 5 5 6 6 6 5 5 4 4 4 4 4 4 4 3 3 3 3 4 5 6 5 5 4 4 3 3 3 5 6 7 8 8 7 6 4 1 2 4 4 3 1 1 3 4 5 5 4 4 5 5 5 6 6 6 7 7 7 8 8 9 10 10 10 9 8 7 6 6 6 5 5 5 5 5 6
5 4 3 3 2 2 2 3 3 4 3 4 3 2 2 2 3 2 2 2 1 1 1 2 4 4 4 4 5 6 6 6 6 6 6 5 4 4 4 5 5 4 4 3 3 4 6 6 6 5 4 4 4 4 3 4 5 6 7 7 7 7 6 4 2 3 5 5 4 2 1 3 5 5 5 4 5 5 5 5 6 6 7 7 7 8 8 8 8 9 9 9 8 7 7 6 6 5 5 5 5 5 6
5 4 4 3 3 3 3 3 4 5 5 5 4 4 3 3 4 4 3 2 2 2 2 3 4 4 4 4 5 5 6 6 6 7 7 7 6 5 4 5 6 6 5 4 4 5 5 5 5 5 5 5 5 4 4 4 5 5 6 6 7 7 7 6 4 3 4 5 6 5 3 3 3 5 6 5 5 5 5 6 6 7 7 7 7 7 7 7 7 8 8 8 8 7 7 6 6 5 5 5 5 5 6
5 5 4 4 3 3 3 4 4 5 5 5 5 4 4 3 4 4 4 3 3 3 3 3 3 4 4 4 4 5 5 6 6 7 8 8 7 6 5 5 5 6 6 5 5 5 5 5 5 4 5 5 5 5 5 5 5 5 5 6 6 6 7 6 6 4 3 4 5 6 6 5 4 4 5 6 6 6 6 6 6 7 7 7 7 7 7 7 7 7 7 7 7 7 7 6 6 5 5 5 5 5 6
6 5 5 6 5 4 4 4 4 4 4 5 5 5 4 4 4 4 4 4 4 3 3 3 3 4 4 4 4 4 5 5 6 7 8 8 8 7 6 6 5 6 6 6 6 5 5 5 5 5 5 5 6 6 6 5 5 5 5 5 6 6 6 6 6 6 5 4 4 6 7 7 6 5 5 6 6 6 7 7 7 7 7 7 7 7 7 7 7 7 7 7 7 6 6 6 6 6 5 5 5 5 6
6 6 7 6 5 4 4 3 3 3 4 5 5 4 3 3 3 4 4 4 5 4 3 3 4 4 4 4 4 4 4 5 6 7 8 8 8 8 8 7 6 6 6 6 6 6 6 6 6 6 6 6 6 7 7 6 6 6 5 6 6 6 6 6 6 6 6 5 5 5 5 7 7 6 5 5 6 6 7 7 6 6 6 6 6 6 6 6 6 6 6 6 6 6 6 6 6 6 5 5 5 5 5
6 6 7 6 5 4 4 4 4 3 3 3 2 2 2 2 2 2 3 3 4 4 4 4 4 4 4 4 4 4 5 6 6 6 7 8 8 9 8 8 7 6 6 6 6 6 7 7 7 7 7 7 6 7 7 8 7 6 6 6 6 6 6 6 6 6 6 6 6 5 5 5 6 6 6 5 5 6 7 6 6 6 6 6 6 5 5 5 5 5 6 6 6 6 6 6 6 6 6 5 5 5 5
6 6 7 7 6 5 5 4 4 3 3 2 2 1 1 2 2 2 2 2 3 3 3 3 3 3 4 4 3 4 5 6 5 5 5 6 7 8 8 8 8 7 6 7 7 8 8 8 8 8 8 8 8 7 8 8 8 8 7 7 7 7 7 7 7 7 6 6 6 6 5 5 5 5 6 5 5 6 7 7 7 6 6 6 6 5 5 5 5 5 5 6 6 6 6 6 6 6 6 5 5 6 6
6 6 6 7 6 5 5 4 4 3 3 2 1 1 1 1 2 2 2 2 2 2 3 3 3 3 3 3 4 4 5 4 4 4 5 5 6 7 8 8 8 8 8 8 9 9 9 9 9 9 8 9 9 9 9 9 9 9 8 8 7 7 7 7 7 7 7 6 6 6 6 5 5 5 5 5 6 6 7 8 8 8 8 7 6 6 6 5 5 5 5 6 6 6 6 6 6 6 6 6 6 6 6
6 6 6 7 6 5 5 4 4 3 3 2 2 2 2 2 2 2 2 2 2 2 3 3 3 3 3 3 4 4 4 3 4 4 4 4 5 5 7 7 8 8 9 10 9 9 9 10 10 10 9 9 9 9 9 9 9 9 9 9 8 8 8 8 7 7 7 7 7 6 6 6 5 4 4 5 6 7 8 8 8 8 8 8 7 7 6 6 6 5 5 6 6 6 7 7 7 6 6 6 6 6 6
6 6 7 7 6 6 6 5 4 4 3 3 2 2 3 3 3 3 3 3 3 3 3 3 3 3 3 3 3 3 3 3 3 4 4 4 4 5 6 6 7 8 9 9 9 9 10 10 10 10 10 10 10 10 9 9 9 9 10 10 9 9 9 8 8 8 8 7 7 7 7 6 6 5 5 5 5 6 8 8 8 8 8 8 8 8 7 7 6 6 6 6 6 7 7 7 7 7 7 6 6 6 6
6 6 7 7 7 7 6 6 5 5 5 4 4 4 4 4 4 4 4 4 4 3 3 3 3 3 3 3 3 4 4 4 4 4 4 4 5 5 6 6 6 7 7 8 9 10 10 10 10 10 10 11 11 11 10 10 10 11 11 11 10 10 10 9 9 9 8 8 8 7 7 7 7 6 6 5 5 6 7 7 7 8 8 9 9 8 8 8 7 6 6 6 6 7 7 7 7 7 7 7 7 7 7
7 6 7 7 7 7 7 7 6 6 6 5 5 5 5 6 6 5 5 5 5 5 4 4 4 4 4 4 4 5 5 5 6 6 6 5 5 6 6 7 7 7 7 8 9 10 10 10 10 11 11 11 11 11 11 11 11 12 12 12 12 11 11 11 11 10 10 9 9 8 8 8 8 7 7 6 6 6 6 7 7 8 8 8 9 9 9 8 8 7 7 7 7 7 7 7 7 7 7 7 7 7 7
7 7 7 7 7 7 7 7 7 6 6 6 6 7 7 7 7 6 6 6 5 5 5 6 5 5 5 6 6 6 6 6 6 6 6 6 6 7 8 8 8 8 8 9 9 10 10 10 11 11 12 12 12 12 12 12 12 13 13 13 13 13 13 13 12 12 12 11 10 9 9 9 9 8 8 8 7 7 6 7 7 8 8 9 9 9 9 9 9 8 8 7 7 8 8 8 8 8 9 8 8 8 8
7 7 8 8 8 8 7 7 7 6 7 7 7 8 8 8 8 8 7 6 6 6 6 7 7 7 7 7 7 7 6 6 6 6 6 6 6 7 7 8 9 10 10 11 11 11 11 11 12 12 12 12 12 12 13 13 13 13 13 13 14 14 14 14 14 14 14 13 12 11 10 10 10 9 9 9 8 8 7 7 7 8 8 9 9 9 10 10 10 10 9 8 9 9 10 10 10 10 10 9 9 9 9
8 8 8 8 8 8 8 8 7 7 7 8 8 8 8 8 8 8 8 7 7 8 7 7 7 8 8 8 8 8 8 7 7 6 6 6 6 6 6 7 10 12 12 13 13 13 13 13 13 13 13 13 12 13 13 13 13 14 14 14 14 14 15 15 14 15 15 15 14 13 11 11 10 10 10 10 10 9 9 8 8 8 8 9 9 9 10 10 10 10 10 10 10 10 10 10 10 10 10 10 10 10 11
9 9 8 8 8 8 9 8 8 7 8 8 9 9 9 9 8 8 8 8 8 9 9 8 7 7 7 7 7 7 7 7 7 7 7 6 6 6 6 8 10 12 12 13 13 14 14 14 14 14 14 14 13 13 12 13 13 13 14 14 14 14 15 14 15 15 15 15 15 15 14 12 11 11 11 11 11 10 10 10 9 9 9 9 10 10 10 10 10 10 10 10 10 10 10 10 11 10 10 11 11 11 12
9 10 9 9 9 9 9 8 8 8 8 9 9 9 9 9 8 8 8 8 8 9 9 9 8 7 6 6 5 5 6 6 7 8 8 7 6 6 6 8 10 11 12 12 13 13 14 13 13 13 13 14 14 13 13 13 13 13 14 14 14 14 14 15 15 15 15 15 15 15 15 14 13 12 12 12 12 12 11 11 10 10 10 10 10 10 10 10 10 10 10 10 10 10 10 11 11 11 11 10 11 12 12
9 10 10 9 9 9 9 8 8 8 8 8 8 8 9 9 9 8 8 7 7 7 8 9 8 7 6 6 6 6 6 5 6 7 8 9 9 9 9 10 10 11 12 12 12 13 13 13 13 13 13 14 14 13 13 13 13 13 13 14 14 14 14 15 15 14 14 13 13 13 15 16 15 14 13 13 13 12 12 12 11 11 11 10 10 10 11 11 11 11 11 11 11 11 11 11 11 11 11 11 11 12 13
10 10 10 10 9 9 9 8 8 8 8 8 8 9 9 9 9 8 8 7 6 6 6 7 8 7 6 6 6 6 6 6 6 6 7 9 10 11 11 11 11 11 11 12 13 13 14 14 14 14 14 14 14 13 13 13 12 12 13 13 13 13 13 14 13 13 13 13 13 13 14 16 16 15 14 13 13 13 13 13 13 12 12 11 11 11 11 11 11 11 11 11 12 12 12 11 11 11 11 11 11 11 12
11 11 10 10 10 9 8 8 8 9 9 9 9 9 8 8 8 8 7 7 7 6 6 6 7 7 6 5 5 6 6 6 6 6 5 7 9 10 11 11 11 11 11 12 13 13 13 14 14 14 14 14 14 13 12 12 11 11 12 12 12 12 12 12 12 12 12 12 13 13 14 15 15 15 15 14 14 13 14 14 13 13 13 12 12 12 12 12 12 12 11 12 12 12 12 12 12 12 12 12 11 11 11
12 11 10 10 10 9 9 9 9 10 11 10 9 9 8 8 7 7 7 8 9 8 6 7 9 10 9 8 7 7 7 7 7 7 6 7 8 9 9 11 12 12 12 12 12 12 12 12 13 13 13 13 12 12 11 11 10 10 10 10 10 10 10 11 10 10 11 11 11 12 12 13 13 14 14 14 14 14 14 14 14 14 13 13 13 13 13 13 13 12 12 12 12 12 12 12 12 12 12 12 12 12 11
11 11 10 10 10 10 10 10 10 11 12 11 10 9 8 7 7 7 7 8 9 10 8 7 9 11 12 11 10 10 10 9 8 8 8 8 9 9 10 11 12 13 12 11 11 11 11 11 11 11 11 11 11 11 10 10 9 8 8 8 8 8 8 8 8 9 9 9 10 10 11 11 11 11 12 12 12 12 12 13 14 13 13 13 13 14 14 14 14 14 13 13 13 13 13 13 13 13 13 13 13 12 12
11 11 10 10 10 10 10 10 11 12 11 11 10 9 8 8 7 7 7 7 8 9 9 8 8 8 10 11 11 11 11 10 9 8 8 8 9 11 12 11 12 13 13 11 10 10 10 11 11 11 11 10 10 9 9 8 7 6 5 5 5 6 6 6 7 7 8 8 8 9 9 9 9 9 9 9 10 10 10 11 12 13 12 12 13 13 14 14 14 14 15 14 14 14 13 13 13 13 14 13 13 13 13
12 11 10 10 10 10 10 10 11 11 11 11 10 9 9 8 8 7 7 7 7 8 9 9 8 8 7 8 10 10 10 10 9 8 7 8 9 10 11 10 10 10 11 11 10 9 9 10 10 10 10 10 9 8 7 6 4 4 3 3 3 4 5 5 6 7 7 7 8 8 7 7 7 6 6 7 7 7 7 8 10 11 11 10 11 11 12 13 14 14 15 15 15 15 15 14 14 14 14 14 14 14 13
12 12 11 11 10 10 10 10 11 11 11 11 10 9 9 9 9 8 8 8 7 7 7 9 10 9 8 8 8 8 9 9 9 8 7 7 8 9 9 8 7 7 8 8 9 9 8 8 9 9 9 8 8 7 5 4 3 2 1 1 2 3 4 5 6 6 6 7 7 7 7 6 6 5 5 5 6 6 7 7 8 9 9 10 10 10 10 11 12 13 14 15 15 16 16 15 14 14 14 14 14 14 14
12 12 12 11 10 10 10 10 11 11 11 11 11 10 9 9 9 9 9 9 9 8 7 8 10 10 9 9 8 8 7 7 7 7 6 7 8 8 7 7 7 7 7 7 7 8 7 7 8 8 7 7 7 6 4 3 2 2 1 1 1 2 3 4 4 5 6 6 7 7 7 6 6 6 6 6 7 7 7 8 8 8 9 9 10 10 10 10 10 11 12 13 14 16 16 17 16 15 14 14 14 14 14
13 12 11 11 10 10 10 10 10 11 11 11 11 10 10 10 10 10 10 11 10 9 8 7 8 9 9 9 8 7 7 7 7 6 5 6 7 6 5 6 8 9 9 7 7 7 7 7 7 7 7 7 6 5 4 3 3 2 2 1 1 2 3 3 3 3 4 5 6 6 6 6 6 7 7 7 8 8 8 8 8 8 8 8 8 9 10 10 10 10 10 11 13 14 15 16 17 16 15 15 14 14 14
13 13 12 11 11 11 10 10 11 11 11 10 10 10 10 10 11 11 11 11 11 11 10 9 8 7 8 9 8 8 7 7 8 7 6 7 6 4 3 5 5 4 4 5 5 5 6 7 7 7 6 6 6 5 4 4 3 3 2 2 2 2 3 3 2 3 3 4 5 5 6 6 6 7 7 8 8 9 9 8 8 8 9 9 9 10 10 11 10 10 9 10 11 12 13 15 16 17 17 16 15 14 14
14 14 13 12 11 11 11 11 11 11 11 10 10 10 10 10 11 11 11 11 11 12 12 11 9 8 7 8 8 8 8 8 9 8 8 7 5 3 3 3 3 3 3 3 3 3 5 6 6 6 6 6 6 5 5 4 4 3 3 3 3 3 3 3 3 3 4 4 5 5 5 6 6 7 7 8 8 9 9 9 9 9 9 9 10 10 11 11 11 10 9 9 9 10 11 12 14 15 17 17 16 15 14
15 15 14 13 12 12 11 11 12 12 12 11 11 11 11 11 11 12 12 12 12 12 12 12 11 10 9 8 8 8 8 9 9 9 8 7 6 5 3 3 2 3 4 3 4 4 3 2 3 4 5 6 6 5 5 4 4 4 3 3 3 3 3 3 3 4 4 4 5 6 6 6 6 7 7 8 8 8 9 9 9 9 10 10 11 11 11 11 11 11 10 9 9 8 9 10 11 13 14 16 16 16 15
16 16 15 15 14 13 12 12 12 12 12 12 12 12 12 12 12 12 12 12 13 12 12 11 12 11 10 10 9 8 7 8 9 9 9 9 8 7 5 3 2 3 3 3 3 3 2 1 1 1 3 5 5 5 5 5 5 4 4 4 4 4 4 4 4 4 4 5 6 7 6 6 7 7 7 8 8 8 9 9 9 10 10 11 11 11 11 12 12 11 11 10 9 8 8 8 9 10 11 13 14 15 15
16 15 15 15 15 14 13 13 12 12 13 13 14 15 14 13 12 12 12 13 13 14 13 12 12 12 12 11 9 8 6 6 8 10 10 10 10 9 8 5 2 1 2 2 3 2 1 3 3 3 2 4 4 5 5 5 5 4 4 4 4 5 5 5 5 4 4 6 7 7 8 7 7 7 8 8 8 8 9 9 9 10 10 10 10 10 11 11 11 11 11 10 10 9 8 7 7 8 8 9 10 11 12
16 15 15 15 16 15 15 14 13 13 13 14 16 17 17 15 14 13 13 13 14 14 14 13 13 13 13 13 12 10 8 8 8 10 11 11 10 10 10 9 7 4 3 3 2 2 3 4 3 2 1 2 4 4 4 4 4 4 4 5 5 5 5 5 6 6 6 5 5 5 7 8 8 7 7 8 8 8 8 8 9 9 9 9 10 10 10 10 10 10 10 10 10 9 8 8 7 7 7 7 7 8 9
15 15 16 16 16 16 16 15 15 14 14 16 18 19 18 17 15 14 14 14 14 15 15 14 14 14 15 15 14 12 11 11 9 9 11 12 13 14 14 13 13 12 10 8 5 3 2 2 1 1 2 2 3 4 5 4 4 4 4 5 5 6 6 6 5 5 4 3 3 4 4 7 8 8 7 7 8 8 8 8 8 8 8 8 9 9 10 10 11 11 10 10 10 9 9 8 8 7 7 6 6 6 6
16 16 16 16 16 16 17 17 16 15 15 16 18 19 18 17 16 15 15 14 14 15 15 15 15 15 15 15 14 13 12 13 12 10 9 11 14 16 16 15 14 14 15 15 13 9 3 1 1 2 2 3 3 4 5 5 4 4 4 5 6 7 7 6 4 4 3 2 3 4 4 4 6 8 8 7 7 8 8 8 8 8 8 8 8 9 9 10 10 11 11 11 10 10 9 9 9 8 8 7 7 6 6
16 17 17 16 16 16 16 17 16 16 16 17 18 18 18 17 16 15 15 14 14 14 14 15 16 16 16 16 15 14 13 13 13 11 8 7 9 12 15 15 14 12 11 14 16 15 10 6 4 2 1 2 3 3 3 3 4 4 4 5 5 6 6 5 4 4 3 3 5 5 4 4 6 8 8 8 8 8 8 8 8 8 7 7 7 8 8 9 10 10 11 11 11 11 11 10 10 10 10 9 9 8 7
17 17 17 16 16 16 16 16 16 16 16 17 18 19 19 18 16 15 15 14 14 14 14 16 17 17 16 16 16 15 14 13 12 12 10 7 7 9 11 13 13 11 10 12 14 15 12 9 8 6 4 2 2 3 3 4 4 4 4 4 4 3 4 4 4 4 4 6 7 8 7 6 7 8 8 9 9 9 9 8 8 8 7 7 7 7 8 8 9 9 10 11 12 12 12 12 12 11 11 11 11 10 10
Wind_Direction
99 101 105 108 110 111 111 111 110 108 107 106 105 105 105 103 101 99 97 97 98 101 101 102 103 103 102 99 96 93 91 90 88 87 85 82 80 77 75 73 71 70 68 67 67 69 70 66 61 59 59 60 60 60 58 55 55 54 53 53 52 52 51 50 48 45 42 41 47 53 57 59 62 67 73 77 78 77 75 70 66 63 61 59 59 58 57 57 57 56 54 53 50 47 45 45 45 44 44 43 42 41 42
100 102 104 108 110 111 112 112 111 109 107 104 104 103 103 101 100 98 96 96 97 99 99 100 101 102 101 99 96 93 91 89 88 86 85 82 79 77 75 73 72 70 68 66 66 68 72 67 62 59 59 60 61 61 59 58 56 55 53 52 51 51 51 49 48 47 46 44 46 50 55 55 58 63 69 73 74 74 73 70 67 65 65 64 63 60 57 55 55 55 55 52 49 46 43 41 40 41 42 41 39 37 37
98 101 106 110 112 112 113 111 110 108 105 103 103 103 102 101 100 98 96 95 96 98 98 98 99 100 100 98 96 93 91 89 88 86 84 81 79 76 74 73 72 70 68 65 65 66 70 69 63 58 59 60 62 62 60 59 57 56 55 54 52 51 51 50 49 48 49 48 47 49 53 55 57 61 66 70 71 71 71 70 68 66 65 66 64 61 57 54 53 53 52 50 48 45 41 39 37 37 36 36 33 29 28
97 102 107 111 113 113 113 111 110 108 106 105 104 103 103 103 102 100 97 95 95 96 97 96 96 97 97 97 95 94 92 90 88 86 83 81 78 76 75 73 71 69 67 64 64 64 64 63 60 58 58 60 61 62 60 58 56 56 57 57 55 52 53 52 50 49 49 52 52 52 55 57 59 60 63 67 69 72 73 72 68 63 61 60 58 54 50 47 45 43 42 42 42 41 39 37 36 34 31 31 28 23 20
98 101 107 111 113 114 114 112 110 109 107 106 104 104 107 106 104 101 98 96 96 96 96 95 94 94 95 95 95 94 93 91 89 86 83 81 78 76 74 73 71 68 65 62 64 66 64 56 55 57 57 58 60 60 58 57 56 57 59 60 57 55 55 53 51 49 49 52 55 57 57 59 60 61 60 60 62 66 70 67 62 58 54 51 47 42 38 35 32 30 29 28 27 28 28 29 31 31 26 25 24 23 18
100 103 107 111 114 115 114 112 111 109 106 106 105 105 107 106 105 102 99 97 96 95 95 94 93 93 93 93 94 94 93 92 90 88 84 81 79 76 75 73 70 67 64 61 64 69 69 59 55 57 56 57 58 58 58 57 56 57 59 61 58 55 54 54 52 49 49 49 52 55 57 58 61 63 61 59 58 58 58 55 51 46 41 37 31 24 20 18 16 14 14 15 15 14 15 16 18 20 21 20 19 19 19
104 106 109 112 115 116 115 114 112 110 108 107 106 105 106 106 105 104 101 97 95 94 94 93 92 91 91 91 91 92 92 92 92 89 86 83 80 77 75 73 70 66 63 60 63 68 71 61 56 57 56 56 56 57 59 58 57 57 58 59 57 55 55 54 52 50 49 49 47 48 53 56 57 56 55 54 54 54 52 47 40 31 26 22 18 13 9 7 6 5 5 5 6 7 6 7 9 12 15 16 16 16 18
107 109 111 114 116 117 116 115 113 113 111 108 106 106 107 106 107 106 103 99 95 94 94 92 90 88 87 86 86 86 88 90 92 92 89 85 81 78 76 73 70 66 62 59 59 63 68 62 56 56 55 54 54 55 58 59 58 57 57 56 56 55 54 51 48 48 49 51 48 45 45 48 50 50 47 47 46 44 41 37 30 24 20 17 14 12 9 7 6 5 4 4 4 5 6 7 9 11 14 15 16 17 18
113 111 111 114 118 120 119 118 117 117 115 112 110 111 112 113 113 111 108 104 100 96 93 89 86 83 81 80 80 80 83 87 91 93 92 88 84 80 77 74 70 66 62 58 55 57 62 61 56 53 53 53 53 53 56 57 58 57 56 57 58 57 53 49 45 44 47 52 53 49 44 41 43 46 47 47 43 39 36 31 27 24 23 20 18 16 15 14 12 11 11 11 11 12 12 13 14 17 18 19 19 20 21
117 113 113 116 120 124 125 127 127 126 124 123 122 122 124 121 120 120 117 112 106 99 92 85 81 79 77 76 76 78 81 87 93 96 95 91 87 82 78 74 70 66 61 57 53 53 56 60 56 52 53 52 51 51 52 55 57 57 57 61 64 62 54 47 42 41 44 50 53 51 48 43 42 45 47 46 43 38 35 33 30 28 26 25 23 21 19 18 17 17 18 18 18 19 19 19 21 23 24 23 22 23 25
111 113 114 118 123 128 132 135 137 138 138 137 136 133 132 130 131 130 125 118 110 101 91 84 80 78 76 76 77 80 84 90 96 100 100 96 91 85 80 75 70 65 60 55 51 50 53 57 55 51 51 50 49 48 49 52 55 55 57 63 65 62 54 47 42 41 43 47 50 49 47 43 41 43 47 44 40 37 34 32 30 28 26 25 24 22 19 19 18 18 19 20 21 23 23 24 25 27 28 27 27 28 29
105 111 116 121 127 131 135 139 143 146 147 145 143 141 140 141 141 137 131 123 116 105 95 87 83 80 79 78 80 83 88 94 100 105 105 103 98 91 84 78 71 65 58 53 48 48 52 54 52 50 50 49 47 46 47 49 51 53 57 64 63 59 54 49 43 41 43 45 46 47 46 44 43 44 47 41 36 33 30 30 29 28 26 24 20 18 17 17 17 17 20 21 23 25 26 26 27 29 31 32 33 33 32
100 109 119 129 135 136 137 141 146 148 150 151 150 149 148 148 147 145 141 135 127 115 102 92 87 83 81 80 80 83 88 95 102 108 110 108 104 97 89 83 73 65 56 50 46 47 52 52 49 49 49 49 46 45 46 46 47 52 62 72 66 56 50 48 42 39 43 47 47 46 48 45 41 40 41 35 29 26 25 27 27 25 23 20 18 16 15 16 16 17 19 21 23 25 26 27 28 29 31 33 35 37 38
96 107 123 140 146 145 144 145 147 150 152 154 156 158 159 158 158 159 159 157 152 141 122 103 93 88 86 83 81 80 84 92 101 108 111 112 109 103 95 87 75 63 53 47 46 47 49 48 46 46 46 47 45 44 45 45 45 50 70 78 70 58 50 46 38 36 43 50 52 50 50 52 48 40 36 28 22 19 18 21 21 20 18 17 15 15 14 16 17 17 19 20 22 23 25 27 28 30 32 33 35 39 41
98 104 125 147 158 158 155 152 151 151 153 157 162 166 169 171 174 179 180 182 183 180 166 131 110 104 98 94 89 87 87 95 107 114 120 120 115 108 98 88 72 56 48 49 49 49 44 42 42 42 43 44 42 41 42 43 41 44 66 79 75 64 56 48 36 32 41 50 54 53 52 60 58 45 34 25 18 13 12 14 15 14 14 13 13 13 15 16 17 17 18 19 20 21 22 24 27 30 32 32 34 38 41
110 107 119 146 163 170 169 162 156 154 156 160 167 173 177 182 188 191 192 193 200 206 201 177 150 139 129 124 116 109 110 133 146 148 149 149 143 131 109 83 57 46 45 50 52 43 39 37 36 37 39 40 39 38 39 39 38 41 57 75 82 72 61 49 33 26 33 47 55 56 55 62 62 49 31 22 14 9 10 11 9 8 8 8 9 11 13 15 16 16 17 18 19 20 20 21 25 28 31 31 32 35 40
133 120 119 137 157 171 176 170 163 158 160 164 169 176 182 188 194 196 194 197 210 219 219 212 203 196 186 173 159 148 159 196 202 197 195 193 195 198 202 310 16 36 49 52 45 31 31 30 32 32 34 35 35 35 35 35 34 38 50 67 86 81 64 49 32 20 20 32 46 54 52 51 45 34 18 5 360 1 4 6 5 4 3 3 5 8 11 13 14 15 15 17 18 19 19 20 21 24 29 30 31 32 36
159 135 121 129 146 162 173 173 168 164 164 166 171 177 184 191 198 204 208 213 222 231 232 232 231 228 221 212 186 158 168 197 218 222 223 222 224 229 242 267 328 35 61 44 16 18 17 23 24 26 30 31 31 31 31 32 33 35 44 55 82 97 78 56 36 15 3 7 21 36 40 32 21 9 356 348 342 339 347 355 1 1 0 0 2 4 8 11 12 13 14 14 16 18 19 18 18 21 24 27 28 29 31
173 147 120 118 130 149 165 173 172 169 166 167 173 182 189 198 207 216 224 229 235 240 242 245 247 246 245 242 200 162 181 190 208 222 227 233 239 243 244 244 248 122 110 312 338 359 3 10 13 17 22 26 26 27 30 30 33 35 40 46 67 114 112 73 45 18 357 349 357 11 19 14 3 354 344 335 321 315 325 341 351 356 357 357 358 1 5 8 10 11 12 12 13 15 17 18 17 18 20 22 24 25 26
180 157 114 96 101 121 146 166 171 170 168 169 175 198 230 228 230 232 237 244 246 245 248 252 261 268 263 252 142 174 200 204 214 223 226 234 244 247 241 231 224 226 233 273 312 336 339 346 356 5 13 17 22 25 28 30 33 36 37 39 49 112 167 130 67 32 2 338 340 352 3 360 347 339 335 325 300 296 311 327 339 347 350 352 355 358 2 5 7 9 10 10 10 11 14 16 16 15 17 19 21 22 22
170 160 112 59 60 73 96 129 153 165 185 179 160 99 296 280 266 256 251 261 262 257 256 257 268 278 262 221 187 194 208 214 229 236 236 234 239 246 246 247 247 250 261 277 287 298 307 319 335 351 1 8 19 25 24 33 37 38 37 36 37 51 195 193 162 66 12 343 333 337 346 344 330 321 322 311 289 285 301 315 328 337 344 347 351 355 359 2 5 8 9 8 6 6 9 12 14 14 14 16 17 18 18
172 168 153 118 83 86 113 118 121 166 222 191 155 125 238 277 280 274 271 284 281 275 269 271 264 253 248 236 225 222 222 218 223 240 245 241 242 248 252 257 261 265 274 279 281 287 296 307 324 337 347 357 13 24 26 35 39 40 38 35 33 31 235 215 208 199 12 352 336 330 327 321 307 301 306 300 286 283 293 307 320 331 339 342 347 351 355 359 3 6 6 5 3 2 4 8 10 12 12 13 14 15 16
182 179 171 169 174 178 169 174 167 185 227 196 160 148 216 213 232 259 280 261 277 286 284 280 263 254 250 246 242 238 237 233 227 227 242 248 249 250 252 255 259 263 267 273 279 284 291 301 312 325 334 344 356 13 26 33 38 39 38 36 33 29 17 239 227 227 235 267 335 337 325 308 295 291 293 290 283 279 290 303 315 326 333 337 341 345 350 354 359 3 3 3 1 359 360 3 7 9 10 10 10 11 13
189 187 186 184 190 197 195 191 184 193 221 202 184 189 232 235 234 236 241 235 246 273 286 276 265 263 259 258 256 253 251 249 244 239 238 245 251 251 249 249 251 254 258 265 273 281 288 296 304 313 324 328 337 351 9 24 32 36 37 36 33 29 23 342 251 240 240 241 255 333 337 319 302 291 286 278 274 276 286 299 311 320 328 331 335 339 344 349 355 359 1 1 359 357 357 0 3 6 6 5 5 6 9
198 195 197 198 203 213 220 217 211 213 221 215 206 209 244 249 252 251 248 252 258 272 276 274 272 272 273 272 271 267 265 263 258 252 247 243 243 246 247 250 251 252 254 259 266 275 284 292 299 306 313 315 321 331 344 6 20 28 31 32 32 30 25 15 325 265 251 246 248 261 317 323 312 299 288 272 268 272 282 294 306 314 321 325 329 334 338 344 349 354 357 358 357 355 355 358 0 3 3 0 358 360 3
206 202 205 207 213 223 230 230 226 226 230 230 223 217 231 250 259 260 258 263 266 273 283 287 287 287 287 283 280 278 274 271 267 264 259 252 247 245 247 249 252 253 254 256 262 269 277 285 292 300 305 307 312 319 327 345 2 14 22 26 28 27 25 22 10 331 278 261 255 255 263 293 308 305 295 279 268 268 275 286 299 308 313 318 322 328 333 337 341 347 351 354 354 354 353 354 356 358 359 356 353 353 356
211 210 211 215 221 229 236 237 238 238 239 239 235 230 233 247 258 261 265 268 268 272 283 289 295 296 292 287 283 280 278 274 271 270 267 263 257 250 247 247 249 251 253 256 260 266 271 276 281 288 296 301 306 310 315 327 342 356 7 14 19 21 21 20 17 7 340 293 269 261 260 266 282 298 297 289 275 264 267 279 291 300 306 311 316 321 326 329 333 339 344 347 350 350 349 350 352 353 354 351 348 348 351
217 218 221 223 227 234 239 241 243 244 247 247 246 243 242 247 252 260 266 269 269 268 273 285 288 284 283 284 281 278 276 274 272 272 272 270 264 257 249 248 247 248 251 253 256 261 266 272 277 283 290 296 302 305 308 315 326 340 350 360 7 11 13 14 15 13 5 344 308 280 267 263 267 280 292 293 281 267 265 273 285 294 299 302 307 312 317 320 324 330 335 340 343 345 344 345 346 348 349 347 345 345 347
223 224 230 232 234 236 234 234 231 234 241 254 261 263 259 259 257 260 265 269 274 275 269 276 278 278 282 284 283 280 275 272 273 275 277 274 270 263 256 250 248 247 247 250 253 256 262 269 276 283 289 292 296 300 304 308 316 326 336 344 352 359 3 5 7 8 8 1 346 319 291 273 267 271 284 293 284 270 263 269 279 287 289 290 295 302 308 312 316 321 326 332 335 336 336 337 339 341 342 343 344 344 345
223 225 233 232 232 231 231 229 228 228 234 252 264 267 263 262 261 263 268 273 279 282 280 273 275 282 287 285 284 280 277 278 278 278 279 278 276 271 263 255 250 249 249 250 252 255 260 266 273 281 286 290 292 294 298 303 309 317 324 330 338 346 352 356 359 0 1 1 358 348 328 298 278 271 275 286 284 274 264 261 267 276 277 278 281 286 294 302 305 310 315 321 324 324 323 326 329 332 335 338 341 343 344
221 225 231 230 225 221 222 222 224 228 235 249 265 263 250 261 272 275 273 266 264 271 275 281 284 288 287 287 283 278 278 285 286 284 281 281 281 278 271 260 253 250 250 250 253 257 263 268 274 280 285 290 292 294 295 300 305 312 317 321 327 333 340 346 350 353 354 354 355 354 347 330 301 279 271 273 272 269 268 273 275 276 279 274 269 272 282 289 293 295 302 310 314 314 312 314 317 321 326 331 336 341 344
218 221 226 225 222 219 217 218 220 228 234 244 266 279 268 272 287 296 296 275 261 260 263 273 278 280 280 282 280 278 280 287 291 290 286 284 282 281 278 267 258 252 252 253 256 262 268 272 276 280 283 287 291 294 295 299 302 306 311 315 319 324 330 336 341 345 347 348 348 348 349 343 325 300 280 273 265 261 267 273 278 284 286 281 273 269 275 279 281 285 291 299 301 302 303 302 304 307 313 320 327 335 343
216 216 218 218 217 218 221 223 226 234 243 248 258 272 276 283 292 301 305 297 278 257 248 252 255 259 260 263 268 272 280 288 293 293 291 289 284 282 282 275 265 258 256 257 259 263 269 274 277 280 282 286 289 292 294 296 297 298 303 309 313 317 321 326 331 335 338 340 341 341 341 341 335 320 296 282 273 267 266 268 273 279 284 284 282 278 270 270 274 278 281 288 292 294 296 293 291 292 297 305 314 324 337
215 215 216 217 218 220 223 229 236 244 249 250 252 263 273 280 285 290 294 291 283 271 261 255 254 255 257 257 260 267 276 281 286 289 290 290 287 285 284 280 273 266 262 262 263 265 269 273 277 280 283 286 289 291 293 294 294 294 298 304 308 311 314 317 321 325 329 332 333 333 333 333 332 326 314 295 283 275 270 267 268 273 280 284 284 281 276 273 273 275 276 279 286 290 290 285 281 279 282 288 296 308 322
214 216 217 218 221 222 225 230 239 245 249 251 254 259 265 272 275 278 282 285 285 281 274 268 265 265 271 272 272 272 277 279 281 284 286 286 283 282 285 284 278 272 270 269 268 269 271 274 278 281 283 286 289 291 291 291 292 293 296 300 303 306 308 310 312 316 319 322 325 326 326 325 325 324 320 310 295 283 275 271 269 269 271 278 281 282 281 276 272 272 274 274 278 283 286 279 273 270 269 272 279 290 303
217 218 219 220 222 226 230 235 241 245 248 253 257 259 263 268 271 272 275 278 283 286 283 279 273 271 272 275 276 277 279 281 283 285 285 281 278 279 283 282 279 278 276 274 272 272 274 277 280 282 283 285 287 288 289 289 290 292 293 296 298 301 303 304 306 309 311 314 316 319 319 320 319 318 317 315 308 296 284 276 273 272 271 276 279 280 281 280 277 275 272 271 274 279 283 280 274 269 265 263 266 273 284
218 220 221 222 225 228 233 240 244 246 249 253 257 261 264 267 269 270 272 276 279 281 284 287 286 282 277 275 274 273 272 276 279 279 278 276 277 281 283 282 281 281 280 277 275 276 277 279 280 281 282 283 284 285 286 287 288 289 290 292 294 296 298 300 302 304 306 308 310 312 314 314 314 313 312 312 310 305 296 286 280 279 281 285 282 279 281 281 281 281 277 274 273 276 284 289 286 282 277 267 261 262 268
219 221 224 225 227 231 235 240 243 246 249 253 257 261 264 265 266 268 269 271 271 271 275 283 288 288 286 282 279 274 268 269 269 270 271 273 275 277 280 280 281 281 280 278 279 280 280 280 280 281 282 283 283 283 284 285 286 288 288 289 290 292 294 296 298 299 301 303 304 306 307 308 309 309 308 307 307 306 302 296 288 284 283 284 284 282 281 280 281 283 282 280 280 284 289 292 290 287 286 274 264 260 258
220 221 224 226 229 233 236 241 243 245 249 255 259 261 262 262 263 264 265 264 265 268 272 276 281 285 286 286 284 281 277 273 271 271 274 275 276 275 274 277 281 282 280 279 280 280 280 279 280 280 281 282 282 282 283 284 286 287 287 287 288 289 292 293 294 294 297 299 301 302 302 302 303 303 303 303 303 303 302 300 295 289 283 280 279 281 283 281 281 283 284 285 286 288 291 291 291 290 288 280 272 265 257
221 221 224 227 231 235 240 243 245 247 252 257 261 262 261 260 259 259 261 261 263 268 272 273 274 275 276 277 278 278 277 278 277 276 276 276 278 279 279 282 285 285 283 281 280 280 279 279 279 280 280 281 281 281 282 283 285 286 287 287 287 288 289 289 290 292 294 296 298 299 299 299 298 298 299 299 299 299 299 299 298 296 291 285 281 279 279 281 284 286 287 287 287 288 290 291 292 292 291 288 282 273 263
222 222 225 228 233 238 243 246 247 249 255 259 261 261 260 259 256 255 257 258 261 267 272 274 271 268 267 267 268 269 271 273 278 282 283 282 281 282 284 288 291 291 290 287 284 282 280 278 278 278 279 279 280 280 282 283 284 284 285 286 287 287 287 287 288 290 292 292 294 296 297 296 295 294 294 294 294 295 295 296 297 297 297 295 290 285 280 279 282 285 286 286 286 287 289 289 291 293 293 292 288 283 275
224 225 228 232 236 241 245 247 246 248 253 257 258 258 258 257 256 254 252 252 255 260 268 272 271 268 267 269 272 274 275 271 275 282 289 290 289 289 287 289 292 294 294 293 291 287 284 281 278 277 277 277 279 280 281 282 282 283 284 285 286 286 286 287 288 290 290 289 289 291 293 295 294 293 291 290 289 290 290 291 293 295 296 296 295 292 287 283 281 281 282 283 283 284 285 285 287 289 291 293 292 290 288
225 228 231 235 239 243 245 244 244 246 250 253 255 255 255 255 256 256 252 250 249 249 254 262 266 266 265 269 271 274 277 276 274 277 287 294 297 296 293 290 289 290 292 294 294 292 288 285 281 279 277 277 278 279 280 281 281 282 283 283 283 284 285 286 287 288 287 285 286 288 290 293 294 294 291 288 286 286 286 287 288 290 292 293 294 293 291 287 282 280 279 281 282 282 282 283 283 285 287 290 291 292 294
229 231 234 237 240 242 242 242 245 248 250 251 252 252 252 253 254 253 251 251 249 248 248 252 257 260 260 266 272 276 280 283 282 281 283 291 295 297 295 290 286 284 285 290 292 292 290 287 284 282 280 278 278 278 278 278 279 280 280 281 282 283 284 286 287 288 288 288 289 290 290 292 294 295 294 291 288 285 284 283 284 285 287 289 290 291 290 288 284 280 276 277 279 281 281 281 281 282 283 285 287 288 291
232 234 236 239 240 241 241 242 245 250 251 251 250 249 247 246 246 246 247 251 252 251 248 253 260 263 265 268 273 278 280 283 284 283 283 285 288 289 289 287 285 283 283 286 287 287 286 284 283 281 280 278 276 275 274 274 275 277 280 282 283 285 287 289 291 292 293 294 294 294 293 293 295 296 296 295 293 290 287 285 283 283 284 286 287 287 287 287 285 282 278 275 276 279 281 280 280 280 280 281 283 285 285
233 235 236 238 240 241 243 243 246 250 252 251 249 246 242 240 240 240 241 245 254 257 253 251 261 269 272 273 274 275 276 275 276 278 279 280 281 283 283 282 284 285 285 284 284 283 279 276 274 273 273 272 271 270 271 272 274 277 281 285 289 291 294 297 300 301 302 302 301 300 300 300 300 299 298 297 296 294 293 290 287 285 284 284 284 285 285 285 284 283 281 277 276 277 279 280 280 280 280 280 280 282 283
234 235 236 238 239 241 242 242 246 250 251 250 246 241 237 235 234 233 232 233 247 257 257 250 250 261 273 276 275 273 271 267 266 268 272 274 276 279 280 279 280 284 287 286 284 282 277 271 266 263 261 262 263 266 269 272 274 276 282 288 296 304 309 312 313 314 314 313 313 313 313 312 311 309 306 303 301 298 297 295 294 293 290 288 286 285 284 283 282 281 280 279 276 275 275 278 280 280 279 279 279 280 281
235 236 236 238 239 240 240 238 242 248 250 247 243 238 235 232 230 229 228 227 234 245 253 253 248 246 253 262 266 265 262 257 255 258 264 271 272 271 272 270 269 273 282 286 287 284 278 269 263 260 258 260 262 264 266 268 269 273 282 294 311 322 326 326 326 326 326 327 328 330 331 331 329 328 323 320 317 314 311 306 305 306 304 300 295 290 286 283 281 279 278 277 275 273 271 273 277 280 279 278 278 278 279
236 238 240 241 241 239 238 235 239 245 248 245 241 237 235 235 234 233 232 231 231 234 240 251 252 248 245 246 245 244 245 244 247 252 258 268 274 273 268 261 255 254 260 271 281 285 279 267 259 257 259 260 261 262 258 252 250 255 268 305 325 330 330 330 330 331 333 336 339 342 346 349 352 353 351 348 343 339 333 328 323 321 320 317 312 305 299 292 285 280 277 275 273 272 270 269 272 276 279 278 278 277 278
236 238 241 242 241 239 237 234 237 242 246 246 244 241 239 238 237 236 235 234 232 230 231 243 249 249 244 248 247 239 229 227 232 240 247 258 268 277 280 278 275 272 267 255 263 276 272 259 250 246 248 250 252 250 241 228 224 227 236 277 313 319 322 324 326 330 333 335 339 343 347 352 356 358 358 354 349 345 339 335 331 329 328 326 323 319 313 307 299 289 282 277 273 271 269 268 267 269 273 278 278 277 277
239 238 239 240 239 238 237 234 234 238 241 245 246 245 242 240 238 237 236 233 231 229 229 233 241 244 241 247 251 247 229 222 221 226 241 253 261 273 294 302 300 293 281 258 248 254 259 250 241 237 236 240 240 233 221 212 212 221 237 254 283 299 301 306 315 325 330 332 334 335 338 340 342 343 343 341 339 336 333 331 329 327 326 325 323 320 317 314 309 302 294 285 278 273 270 268 267 266 267 271 275 277 276
241 240 238 238 238 238 238 236 234 235 238 241 242 243 241 239 237 235 234 233 231 229 229 232 236 238 239 242 249 249 235 227 223 227 241 259 266 271 292 299 292 281 279 279 264 239 229 225 227 227 224 228 226 219 211 210 213 220 231 244 261 274 279 288 301 317 332 338 337 334 331 329 329 328 328 329 328 328 327 326 324 322 321 319 317 315 315 312 311 308 302 294 285 278 273 270 268 266 265 265 268 272 275
241 240 238 237 237 238 239 238 237 236 236 235 237 239 240 237 235 234 233 234 232 231 230 232 236 240 237 239 243 244 236 230 228 232 239 255 261 260 260 261 264 279 316 319 308 267 224 209 198 195 204 212 216 215 211 210 214 219 222 233 248 259 267 276 289 314 338 346 344 339 334 330 326 324 323 324 325 325 324 322 320 318 316 315 314 313 313 312 310 309 306 300 293 286 279 273 270 267 265 264 264 266 271
240 240 239 238 238 238 239 239 239 237 235 235 236 237 238 238 236 234 232 233 233 233 232 233 236 241 245 244 244 241 234 232 232 234 237 243 248 250 252 245 266 308 312 309 299 286 255 202 175 176 180 203 215 217 216 213 214 215 214 223 239 254 264 273 289 313 335 342 342 339 337 332 328 325 324 324 325 324 322 319 317 314 312 311 310 311 311 311 311 312 311 309 303 294 286 279 273 269 267 265 264 263 267
242 241 240 239 239 239 239 240 240 239 236 236 236 237 239 239 237 235 233 233 235 235 234 235 235 238 244 249 250 248 239 234 237 240 239 237 238 245 264 277 295 300 288 267 257 263 288 24 359 251 186 196 201 205 212 210 209 210 213 218 230 245 257 271 289 309 325 327 330 333 335 331 327 325 324 323 322 320 317 316 315 313 311 310 310 311 312 313 315 318 319 318 313 304 295 286 279 274 272 270 268 265 264
244 242 241 240 240 240 240 240 241 240 238 237 238 239 240 241 240 238 237 236 237 238 236 236 236 235 237 242 246 247 244 239 244 245 239 237 235 239 252 267 278 249 222 228 241 258 333 21 346 294 252 183 185 197 193 193 202 214 220 221 226 236 248 265 281 296 308 317 324 329 329 328 326 322 319 319 317 315 315 314 314 312 310 309 310 311 314 316 319 320 322 321 318 312 304 295 288 284 281 280 276 272 269
245 243 242 241 241 242 242 242 242 241 240 240 242 244 245 245 244 242 241 239 239 238 236 236 236 236 236 236 237 240 246 247 242 238 240 237 235 236 239 244 248 254 264 276 297 341 21 15 353 303 278 186 194 205 196 186 198 213 218 223 231 241 254 269 282 292 301 311 320 325 325 325 323 320 316 315 314 313 315 315 314 312 310 309 309 311 312 312 313 315 317 318 318 315 308 302 296 291 287 289 288 285 284
244 245 245 244 243 243 243 243 243 242 242 242 245 248 249 248 247 245 244 242 241 240 239 237 236 238 238 237 235 236 245 253 245 231 235 238 237 236 235 238 238 240 248 255 271 312 23 35 8 272 291 261 223 204 196 198 203 208 211 227 244 258 271 276 281 286 293 305 318 327 327 324 321 317 316 316 315 316 318 318 318 316 314 312 312 311 309 307 307 308 310 311 311 311 308 304 298 291 285 284 286 288 289
245 247 248 247 246 245 245 244 244 243 242 244 246 248 249 249 248 247 246 244 244 243 240 237 236 238 238 236 233 233 241 248 251 245 225 234 239 239 238 239 239 239 238 243 247 250 244 213 233 268 293 287 263 229 204 198 203 208 210 233 258 274 281 276 271 276 289 306 323 330 335 329 319 316 320 321 321 322 322 324 324 323 321 318 315 313 310 309 308 306 306 304 303 303 304 301 296 289 282 276 271 271 275
250 251 251 251 249 247 246 245 244 243 243 244 247 248 249 249 249 248 248 247 245 242 238 236 237 238 238 235 232 233 238 243 248 245 229 223 236 243 239 235 235 236 238 242 245 244 239 237 244 262 272 276 283 278 249 218 210 215 224 231 254 273 278 264 258 266 282 298 309 316 322 317 314 317 323 325 326 326 326 326 327 328 325 322 317 313 310 310 310 311 310 305 301 299 300 299 296 291 285 277 271 267 267
252 253 252 251 249 247 245 244 243 243 244 245 247 249 251 251 249 248 246 245 244 241 238 237 238 238 237 235 233 235 240 243 249 250 241 229 240 247 235 230 230 231 231 238 242 242 238 236 239 241 241 252 274 286 288 277 263 249 239 217 220 242 256 248 248 258 276 293 304 311 312 309 312 318 323 325 326 325 324 325 326 327 325 321 317 313 311 310 313 315 316 309 303 300 300 299 297 294 289 284 277 271 268